TimeEST,TemperatureF,Dew PointF,Humidity,Sea Level PressureIn,VisibilityMPH,Wind Direction,Wind SpeedMPH,Gust SpeedMPH,PrecipitationIn,Events,Conditions,WindDirDegrees,DateUTC
12:15 AM,66.2,60.8,83,29.80,10.0,South,15.0,-,N/A,,Overcast,190,2013-01-30 05:15:00
12:35 AM,68.0,60.8,78,29.79,10.0,South,15.0,-,N/A,,Overcast,180,2013-01-30 05:35:00
12:55 AM,66.2,60.8,83,29.76,10.0,South,18.4,-,N/A,,Overcast,170,2013-01-30 05:55:00
1:35 AM,66.2,60.8,83,29.72,10.0,South,19.6,31.1,N/A,,Mostly Cloudy,180,2013-01-30 06:35:00
1:55 AM,68.0,60.8,78,29.73,10.0,South,18.4,28.8,N/A,,Overcast,180,2013-01-30 06:55:00
2:15 AM,68.0,60.8,78,29.72,10.0,South,18.4,29.9,N/A,,Overcast,180,2013-01-30 07:15:00
2:35 AM,68.0,60.8,78,29.71,10.0,South,16.1,34.5,N/A,,Overcast,190,2013-01-30 07:35:00
2:55 AM,68.0,60.8,78,29.69,10.0,South,17.3,-,N/A,,Overcast,180,2013-01-30 07:55:00
3:15 AM,68.0,60.8,78,29.68,10.0,South,21.9,35.7,N/A,,Overcast,190,2013-01-30 08:15:00
3:35 AM,69.8,60.8,73,29.68,10.0,South,16.1,33.4,N/A,,Overcast,180,2013-01-30 08:35:00
3:55 AM,68.0,60.8,78,29.66,10.0,South,19.6,38.0,N/A,,Overcast,180,2013-01-30 08:55:00
4:15 AM,66.2,62.6,88,29.67,10.0,South,12.7,31.1,N/A,,Overcast,190,2013-01-30 09:15:00
4:35 AM,66.2,62.6,88,29.64,10.0,South,19.6,-,N/A,,Overcast,190,2013-01-30 09:35:00
4:55 AM,68.0,60.8,78,29.64,10.0,SSW,21.9,28.8,N/A,,Overcast,200,2013-01-30 09:55:00
5:15 AM,68.0,62.6,83,29.64,10.0,SSW,18.4,32.2,N/A,,Overcast,200,2013-01-30 10:15:00
5:35 AM,68.0,62.6,83,29.64,10.0,SSW,16.1,38.0,N/A,,Overcast,200,2013-01-30 10:35:00
5:55 AM,66.2,62.6,88,29.62,6.0,South,17.3,27.6,N/A,,Overcast,190,2013-01-30 10:55:00
6:15 AM,66.2,62.6,88,29.61,9.0,South,16.1,-,N/A,,Overcast,190,2013-01-30 11:15:00
6:35 AM,66.2,62.6,88,29.61,5.0,South,11.5,-,N/A,,Overcast,190,2013-01-30 11:35:00
6:55 AM,66.2,62.6,88,29.61,-9999.0,SW,10.4,-,N/A,,Overcast,220,2013-01-30 11:55:00
7:15 AM,59.0,55.4,88,29.66,1.8,NW,13.8,31.1,N/A,,Overcast,320,2013-01-30 12:15:00
7:35 AM,53.6,53.6,100,29.68,1.2,NNW,8.1,-,N/A,,Overcast,330,2013-01-30 12:35:00
7:55 AM,53.6,53.6,100,29.69,2.0,NW,3.5,-,N/A,,Overcast,320,2013-01-30 12:55:00
8:15 AM,53.6,53.6,100,29.69,2.5,Calm,Calm,-,N/A,,Overcast,0,2013-01-30 13:15:00
8:35 AM,53.6,53.6,100,29.68,4.0,South,4.6,-,N/A,,Overcast,170,2013-01-30 13:35:00
8:55 AM,53.6,53.6,100,29.64,4.0,Calm,Calm,-,N/A,,Overcast,0,2013-01-30 13:55:00
9:15 AM,53.6,53.6,100,29.67,3.0,SSE,5.8,-,N/A,,Overcast,150,2013-01-30 14:15:00
9:35 AM,53.6,51.8,94,29.65,3.0,SE,4.6,-,N/A,,Overcast,130,2013-01-30 14:35:00
9:55 AM,53.6,53.6,100,29.64,3.0,SSE,3.5,-,N/A,,Overcast,150,2013-01-30 14:55:00
10:15 AM,53.6,53.6,100,29.64,2.5,South,4.6,-,N/A,,Overcast,180,2013-01-30 15:15:00
10:35 AM,53.6,53.6,100,29.63,2.5,Calm,Calm,-,N/A,,Overcast,0,2013-01-30 15:35:00
10:55 AM,53.6,53.6,100,29.65,3.0,SSW,8.1,-,N/A,,Overcast,210,2013-01-30 15:55:00
11:15 AM,53.6,53.6,100,29.65,4.0,WSW,5.8,-,N/A,,Overcast,250,2013-01-30 16:15:00
11:35 AM,53.6,53.6,100,29.64,4.0,Calm,Calm,-,N/A,,Overcast,0,2013-01-30 16:35:00
11:55 AM,53.6,53.6,100,29.63,5.0,SW,3.5,-,N/A,,Overcast,230,2013-01-30 16:55:00
12:15 PM,51.8,51.8,100,29.61,4.0,South,6.9,-,N/A,,Overcast,180,2013-01-30 17:15:00
12:35 PM,51.8,50.0,94,29.59,5.0,South,4.6,-,N/A,,Mostly Cloudy,170,2013-01-30 17:35:00
12:55 PM,51.8,50.0,94,29.61,4.0,SSW,4.6,-,N/A,,Mostly Cloudy,210,2013-01-30 17:55:00
1:15 PM,51.8,48.2,88,29.62,4.0,SW,6.9,-,N/A,,Overcast,220,2013-01-30 18:15:00
1:35 PM,50.0,46.4,87,29.59,6.0,SW,4.6,-,N/A,,Mostly Cloudy,230,2013-01-30 18:35:00
1:55 PM,48.2,44.6,87,29.59,6.0,SSW,5.8,-,N/A,,Overcast,200,2013-01-30 18:55:00
2:15 PM,48.2,46.4,93,29.58,5.0,South,5.8,-,N/A,,Overcast,180,2013-01-30 19:15:00
2:35 PM,48.2,46.4,93,29.56,6.0,SE,4.6,-,N/A,,Overcast,140,2013-01-30 19:35:00
2:55 PM,48.2,46.4,93,29.58,10.0,Calm,Calm,-,N/A,,Mostly Cloudy,0,2013-01-30 19:55:00
3:15 PM,50.0,46.4,87,29.58,8.0,Calm,Calm,-,N/A,,Overcast,0,2013-01-30 20:15:00
3:35 PM,50.0,46.4,87,29.58,10.0,South,6.9,-,N/A,,Mostly Cloudy,170,2013-01-30 20:35:00
3:55 PM,50.0,48.2,94,29.58,10.0,South,6.9,-,N/A,,Mostly Cloudy,170,2013-01-30 20:55:00
4:15 PM,50.0,48.2,94,29.58,10.0,South,5.8,-,N/A,,Overcast,190,2013-01-30 21:15:00
4:35 PM,50.0,46.4,87,29.55,10.0,South,5.8,-,N/A,,Overcast,190,2013-01-30 21:35:00
4:55 PM,50.0,46.4,87,29.55,10.0,South,6.9,-,N/A,,Overcast,190,2013-01-30 21:55:00
5:15 PM,50.0,46.4,87,29.55,10.0,SSW,6.9,-,N/A,,Overcast,210,2013-01-30 22:15:00
5:35 PM,50.0,46.4,87,29.59,10.0,SSW,6.9,-,N/A,,Mostly Cloudy,210,2013-01-30 22:35:00
5:55 PM,51.8,46.4,82,29.57,10.0,SW,11.5,-,N/A,,Mostly Cloudy,220,2013-01-30 22:55:00
6:15 PM,51.8,46.4,82,29.57,10.0,SW,12.7,-,N/A,,Mostly Cloudy,230,2013-01-30 23:15:00
6:35 PM,51.8,44.6,76,29.56,10.0,SW,18.4,-,N/A,,Overcast,230,2013-01-30 23:35:00
6:55 PM,50.0,42.8,76,29.58,10.0,WSW,15.0,-,N/A,,Mostly Cloudy,250,2013-01-30 23:55:00
7:15 PM,46.4,44.6,93,29.62,4.0,West,19.6,28.8,N/A,,Mostly Cloudy,260,2013-01-31 00:15:00
7:35 PM,46.4,42.8,87,29.62,9.0,West,12.7,-,N/A,,Overcast,260,2013-01-31 00:35:00
7:55 PM,46.4,42.8,87,29.65,10.0,West,13.8,-,N/A,,Overcast,280,2013-01-31 00:55:00
8:15 PM,42.8,39.2,87,29.68,5.0,WNW,19.6,32.2,N/A,,Overcast,290,2013-01-31 01:15:00
8:35 PM,41.0,37.4,87,29.70,6.0,West,13.8,-,N/A,,Overcast,280,2013-01-31 01:35:00
8:55 PM,41.0,35.6,81,29.72,10.0,West,12.7,-,N/A,,Overcast,270,2013-01-31 01:55:00
9:15 PM,41.0,33.8,76,29.73,10.0,West,12.7,29.9,N/A,,Overcast,270,2013-01-31 02:15:00
9:35 PM,39.2,33.8,81,29.74,10.0,West,17.3,-,N/A,,Overcast,280,2013-01-31 02:35:00
9:55 PM,39.2,32.0,75,29.75,10.0,West,12.7,29.9,N/A,,Overcast,280,2013-01-31 02:55:00
10:15 PM,39.2,32.0,75,29.77,10.0,West,15.0,-,N/A,,Overcast,280,2013-01-31 03:15:00
10:35 PM,37.4,28.4,70,29.80,10.0,West,18.4,-,N/A,,Overcast,270,2013-01-31 03:35:00
11:15 PM,37.4,26.6,65,29.85,10.0,West,17.3,29.9,N/A,,Overcast,270,2013-01-31 04:15:00
11:35 PM,35.6,24.8,65,29.87,10.0,West,15.0,-,N/A,,Overcast,280,2013-01-31 04:35:00
11:55 PM,35.6,24.8,65,29.88,10.0,West,13.8,-,N/A,,Overcast,280,2013-01-31 04:55:00